Temperature
23 21 21 22 21 22 23 23 22 22 20 18 17 16 16 16 16 15 14 14 15 15 15 15 16 16 16 16 17 17 17 17 17 16 16 16 16 16 16 16 16 17 17 17
21 22 23 23 23 22 22 23 22 21 20 18 17 16 16 16 15 14 14 14 15 15 15 16 16 16 16 16 17 17 17 17 16 16 16 16 16 16 16 16 16 16 17 17
23 23 24 24 24 24 24 23 23 21 20 18 17 16 16 16 15 15 15 15 15 15 15 16 16 16 17 17 17 17 17 17 17 16 16 16 16 16 16 16 16 16 16 17
23 23 24 24 24 24 24 24 24 22 19 18 19 17 16 15 15 15 14 14 15 15 16 16 16 16 17 17 17 17 17 17 17 16 16 16 16 16 16 16 16 16 16 16
23 23 23 24 25 25 24 22 22 21 19 18 17 17 16 15 15 15 14 14 15 15 16 16 16 16 17 17 17 17 17 17 17 17 16 16 16 15 15 15 15 15 16 16
22 23 23 23 24 24 23 21 20 17 17 18 18 17 17 15 15 15 15 15 15 16 16 16 16 16 17 17 17 17 16 16 16 16 16 16 15 15 15 15 15 15 15 15
22 22 23 23 24 23 21 20 19 19 18 18 17 17 17 16 15 15 15 15 15 15 15 16 16 16 16 16 16 16 16 16 16 16 15 15 15 15 14 14 14 14 14 14
21 21 22 23 23 22 21 20 19 19 18 17 17 17 16 16 16 15 15 15 15 15 15 15 15 15 15 15 15 15 15 15 15 15 15 14 14 14 14 13 13 13 13 13
21 21 22 23 22 22 21 18 18 17 17 17 17 17 16 15 15 15 15 15 15 15 15 15 15 15 15 15 14 14 14 14 14 14 14 14 13 13 13 13 13 12 12 12
21 21 21 21 21 21 20 18 16 16 17 18 18 17 15 14 14 14 14 14 15 15 15 15 15 15 14 14 14 14 13 13 13 13 13 13 13 13 13 12 12 12 12 11
20 19 20 20 19 19 19 18 15 14 15 16 17 16 14 13 13 13 14 15 15 15 15 15 14 14 13 13 13 13 13 13 13 13 13 13 12 12 12 12 12 12 11 11
18 17 18 19 19 19 19 17 16 17 16 14 15 14 13 13 13 14 14 14 14 14 14 14 13 13 13 13 12 12 12 12 12 12 12 12 12 12 12 12 12 11 11 11
18 17 17 18 18 18 18 17 15 13 13 14 15 15 13 13 13 14 14 14 14 14 13 13 13 12 12 12 12 11 11 11 11 11 11 11 11 11 11 11 11 11 11 11
17 15 17 18 18 18 18 17 16 15 14 15 15 15 13 13 12 13 14 14 13 13 13 12 12 11 11 11 11 10 10 10 10 10 10 10 10 10 11 11 11 11 11 11
16 16 17 17 18 18 18 18 17 16 16 15 15 14 13 12 12 13 13 13 13 12 12 11 11 10 10 10 9 9 9 9 9 9 9 9 9 9 9 10 10 10 10 10
15 17 18 18 18 17 17 17 17 17 16 15 14 13 13 13 13 13 13 12 12 11 11 10 10 9 9 8 8 7 7 7 7 7 7 7 7 8 8 8 9 9 9 9
15 16 16 16 17 17 16 16 17 16 15 14 13 12 12 11 11 12 12 12 11 10 10 9 9 8 8 7 7 6 6 6 6 6 6 6 6 6 6 7 7 8 8 8
15 14 13 15 17 17 16 17 17 15 14 13 13 12 12 12 12 12 12 11 10 9 9 8 8 7 7 6 6 5 5 5 5 5 5 5 5 5 5 6 6 6 7 7
14 14 14 14 16 16 16 16 16 14 13 12 12 11 12 12 10 11 11 10 9 9 8 7 7 6 6 6 5 5 5 5 5 5 5 5 5 5 5 5 5 6 6 6
13 13 14 14 17 16 16 17 16 14 13 13 12 11 11 10 7 8 10 9 9 8 7 7 6 6 6 6 5 5 5 5 5 5 5 5 5 4 4 4 5 5 5 5
16 14 14 14 15 15 15 16 15 14 14 13 13 12 11 9 9 10 9 9 8 7 7 7 6 6 6 6 5 5 5 5 5 5 5 5 5 4 4 4 4 5 5 5
16 15 14 13 15 15 16 14 14 14 14 14 13 12 11 11 10 9 9 8 7 7 7 6 6 6 6 6 5 5 5 5 5 5 5 5 5 4 4 4 4 4 4 4
14 14 13 13 14 15 16 15 16 15 14 13 13 12 11 10 9 9 8 7 7 7 6 6 6 6 6 6 5 5 5 5 5 5 5 5 5 5 4 4 4 4 4 4
14 12 12 13 13 14 15 15 15 14 14 13 12 11 10 9 9 8 7 7 7 7 6 6 6 5 6 6 6 6 6 5 5 5 5 5 5 5 5 4 4 4 4 4
15 13 13 13 13 14 15 15 15 14 13 12 11 11 10 9 8 8 7 7 7 7 6 6 6 6 6 6 6 6 6 6 6 6 6 6 5 5 5 5 4 4 5 5
13 13 13 14 15 13 16 16 15 13 13 12 11 10 9 8 8 7 7 7 7 6 6 6 6 6 6 6 6 6 6 6 6 6 6 6 6 5 5 5 5 5 5 5
Wind_Speed
4 4 2 6 7 6 3 2 1 1 4 9 13 11 11 10 11 11 10 9 9 7 5 6 6 5 4 3 4 3 4 5 4 3 2 3 2 3 2 2 2 4 5 5
5 2 6 5 4 5 4 2 1 4 6 7 9 10 8 10 8 7 8 8 7 6 6 6 6 5 4 5 5 4 5 5 5 3 2 2 2 2 1 2 3 4 4 4
3 5 4 2 2 1 2 4 4 5 4 5 6 5 5 5 6 7 7 5 5 5 4 5 5 5 5 5 5 5 4 4 4 4 2 2 2 2 3 4 4 4 3 4
4 4 3 2 1 1 2 2 2 5 6 2 2 2 0 2 5 5 5 6 6 6 5 5 6 6 5 4 4 3 3 4 4 4 4 4 3 3 3 3 3 5 5 3
5 3 3 3 2 1 2 3 5 4 5 4 4 4 1 1 2 4 4 4 4 5 5 5 5 5 5 5 4 3 2 2 2 3 4 4 3 1 1 2 4 5 5 5
5 3 3 3 3 1 2 6 6 6 5 4 2 2 2 4 4 4 3 3 4 5 6 6 6 6 7 6 5 5 3 3 2 0 1 2 2 1 0 1 2 3 3 3
8 7 4 2 3 5 6 6 5 6 5 2 2 1 3 2 3 4 4 5 5 5 6 7 8 8 8 9 8 7 6 6 5 4 3 3 4 3 3 2 1 1 1 1
5 7 7 6 2 1 3 6 6 3 3 3 3 1 3 1 1 2 2 3 4 6 7 8 9 9 9 10 10 9 8 8 7 6 6 6 5 4 4 5 4 4 3 3
1 5 6 6 5 3 4 4 4 6 2 1 3 3 3 2 2 1 1 2 5 7 8 9 9 9 9 10 10 9 9 10 10 9 8 8 7 7 7 7 6 5 5 5
3 3 6 7 8 9 6 6 5 5 2 1 3 2 5 6 5 3 3 3 5 6 7 8 7 8 8 9 9 10 10 10 11 10 9 9 9 9 9 7 8 8 7 6
3 2 6 6 7 7 6 6 6 5 4 3 2 3 4 4 2 2 3 4 6 7 8 8 7 8 9 9 9 10 10 11 11 12 11 10 10 10 9 9 10 10 8 8
3 4 3 3 4 3 5 5 3 3 1 2 1 4 3 1 2 2 4 6 7 7 8 8 8 9 9 10 11 11 11 11 12 12 11 12 12 11 11 11 12 11 11 10
5 6 4 6 7 7 7 5 5 6 5 2 1 5 1 2 3 4 6 8 9 9 9 8 9 10 11 11 12 12 12 12 13 12 12 12 13 13 13 13 13 12 12 11
5 5 4 3 4 1 4 5 4 5 3 2 5 7 3 4 6 8 9 10 10 10 10 10 11 11 11 12 12 12 13 13 13 12 12 13 14 14 14 13 12 12 12 12
6 5 2 1 1 4 4 4 4 4 3 5 7 7 6 5 7 9 9 10 11 11 11 12 12 11 11 12 12 12 13 13 13 13 14 14 14 14 13 13 12 12 12 13
5 5 3 2 3 6 4 3 2 0 2 5 5 7 6 6 6 8 11 11 11 12 12 12 12 12 12 12 12 13 13 13 13 14 15 15 15 15 14 14 13 12 11 11
3 5 4 3 3 1 2 3 3 4 5 5 7 7 7 9 9 9 10 11 12 13 13 13 12 12 13 13 13 13 14 14 14 15 16 15 15 15 15 15 14 12 11 11
6 5 4 2 2 4 6 2 3 5 6 6 7 8 9 11 10 10 11 9 11 11 11 12 12 13 13 14 14 14 15 15 16 16 16 16 16 16 15 14 14 12 10 10
5 7 4 3 1 5 2 3 3 4 8 7 7 9 9 9 8 7 7 6 9 10 12 12 13 15 14 15 15 15 16 16 16 17 17 16 16 16 16 15 14 12 10 10
7 6 6 4 2 5 6 3 1 2 6 6 6 8 8 7 7 7 7 9 10 11 11 13 13 14 15 15 14 16 17 17 17 17 17 17 16 16 16 15 13 11 10 11
3 5 4 3 4 7 5 2 2 1 7 3 5 7 7 5 7 9 11 10 10 12 14 14 15 15 15 15 14 16 17 17 17 17 17 16 15 14 14 13 12 11 10 10
6 4 4 4 2 7 5 6 5 8 3 3 5 6 7 8 9 9 10 11 12 13 14 13 14 16 15 14 14 16 17 16 16 16 16 15 14 13 11 10 10 10 9 9
6 8 6 8 7 6 5 8 6 6 4 4 4 6 6 7 8 9 9 10 12 13 14 14 15 16 16 14 14 16 17 16 17 16 16 15 14 11 10 9 9 8 7 7
3 4 4 4 7 6 6 5 4 6 6 5 5 6 5 7 9 10 10 10 12 12 15 14 15 16 17 16 15 15 16 15 16 16 15 13 12 11 9 7 6 6 5 5
6 7 4 5 6 4 7 8 6 5 4 4 4 4 6 7 9 9 9 11 12 13 12 13 15 16 18 17 17 16 15 14 15 14 13 12 10 9 8 6 5 4 4 4
6 8 8 8 8 8 7 7 7 6 6 6 5 5 5 5 8 8 10 10 12 14 14 15 15 16 17 17 17 16 14 14 13 12 12 9 9 8 6 6 4 3 2 4
Wind_Direction
36 63 287 253 216 221 244 256 289 109 120 73 78 68 41 34 48 57 61 64 64 59 43 33 35 37 35 28 35 11 4 349 343 332 335 318 303 294 296 282 266 255 245 227
32 320 260 266 234 203 201 195 127 91 107 102 94 72 44 32 35 35 43 47 50 45 33 25 19 20 26 24 26 27 17 359 356 336 301 275 281 289 316 336 337 302 269 243
200 251 298 335 16 109 186 187 193 158 102 104 113 65 33 23 25 29 30 28 34 43 28 11 8 4 15 20 19 25 16 10 8 355 332 335 348 352 7 7 351 327 298 251
277 285 335 343 341 129 297 278 199 152 134 154 165 129 327 355 356 357 356 357 1 2 1 2 352 345 353 353 356 11 14 23 26 32 48 53 41 21 355 343 337 342 351 347
295 308 329 309 277 205 227 51 73 93 116 82 38 108 228 193 292 289 300 319 331 335 332 329 318 314 316 319 322 322 335 11 28 53 73 81 76 50 328 344 357 360 0 6
271 283 242 256 306 347 107 72 56 54 72 61 333 130 237 216 211 224 247 275 290 300 304 301 301 303 298 296 292 284 286 288 285 358 115 130 137 157 12 358 355 349 345 355
338 338 332 316 356 18 59 72 27 6 14 280 315 101 250 248 188 192 214 244 268 278 283 286 288 288 284 283 278 274 271 270 265 254 236 219 208 207 215 234 255 277 304 310
2 329 338 356 7 355 59 113 145 205 235 284 353 320 293 327 137 158 207 245 269 278 277 275 273 273 278 282 285 284 278 275 272 262 254 246 236 228 230 231 230 235 236 242
314 295 326 5 10 71 73 66 137 128 127 19 318 315 341 51 28 351 270 272 277 279 279 276 278 282 283 286 286 284 282 281 278 271 266 258 248 238 237 237 233 236 238 244
159 291 325 332 27 29 77 123 80 87 113 314 317 340 329 333 338 353 352 324 307 302 300 298 297 296 293 289 287 287 279 272 271 269 261 259 249 243 240 238 238 238 239 238
102 98 341 24 30 348 14 45 78 90 121 144 280 281 337 309 333 18 352 327 311 304 303 302 306 305 304 301 297 294 290 283 280 275 270 266 262 255 247 241 240 238 238 236
96 102 26 333 322 355 69 56 100 107 54 111 194 265 327 30 42 23 327 310 306 299 299 297 298 302 303 301 298 294 289 285 280 278 276 272 269 264 257 251 246 238 235 234
109 86 48 357 348 9 37 34 74 96 95 102 260 270 210 3 345 321 304 301 305 304 305 303 304 303 302 300 298 296 293 290 287 285 281 279 276 270 263 258 252 242 235 234
99 82 128 174 246 301 42 26 51 85 91 274 243 259 256 311 311 305 300 299 303 302 300 299 298 297 297 297 296 297 296 295 294 292 288 283 279 274 268 263 257 249 239 234
84 88 81 78 72 103 89 64 64 92 168 218 260 262 250 264 281 286 289 295 300 300 297 296 296 296 295 297 298 298 297 297 297 296 292 288 285 282 278 271 262 253 244 240
71 111 98 57 69 88 79 45 55 99 253 254 269 269 248 277 286 285 287 291 293 295 296 297 298 299 299 300 300 299 297 296 295 293 292 292 290 287 283 279 272 262 252 243
90 122 125 200 217 344 262 225 224 242 237 225 242 256 289 295 289 281 284 291 295 298 300 299 299 297 297 297 299 299 296 297 294 292 291 290 289 287 283 282 279 269 261 252
124 109 119 129 103 250 250 231 209 231 241 217 232 259 276 271 276 277 278 282 289 294 296 297 297 297 296 297 299 297 298 298 296 294 291 290 288 286 282 278 275 270 264 258
121 128 113 113 211 282 248 207 185 229 266 216 232 262 274 292 315 293 276 280 283 289 293 295 296 298 299 300 302 303 303 301 299 297 294 291 287 284 280 276 271 268 263 259
62 84 108 122 183 253 244 212 235 178 286 223 230 267 284 317 321 291 294 306 299 297 297 298 300 302 303 305 306 307 306 305 303 301 298 294 288 284 279 274 270 266 258 255
48 50 99 155 225 263 240 204 91 199 270 228 235 264 277 260 247 274 300 300 292 295 299 302 306 308 308 308 309 309 309 307 307 305 302 298 293 286 279 272 267 263 257 254
171 159 180 155 210 267 203 150 185 223 240 247 257 264 268 268 276 289 297 296 301 305 307 310 311 312 312 312 313 313 311 310 310 309 307 305 300 293 289 277 270 261 254 249
190 189 188 188 213 239 209 205 213 181 212 246 252 270 280 284 287 294 292 296 302 307 311 313 314 315 316 316 316 314 313 314 314 314 313 311 307 301 293 284 277 266 250 238
234 144 150 231 256 238 228 226 215 195 215 246 264 280 280 278 284 292 294 300 308 310 315 315 318 319 320 320 318 313 312 315 318 318 318 316 314 312 306 295 281 265 246 233
221 170 183 241 264 253 251 230 219 214 231 265 283 272 268 273 285 288 298 306 312 314 314 316 320 320 319 321 319 318 318 320 321 320 320 321 319 316 315 312 301 278 253 233
196 178 178 219 214 193 232 221 195 203 231 251 265 276 278 275 282 293 301 304 310 314 317 321 322 322 321 321 320 320 322 323 323 324 325 323 323 322 321 321 325 323 283 263
Height
1489 1494 1498 1496 1494 1494 1495 1498 1501 1499 1499 1504 1510 1512 1512 1509 1506 1504 1503 1502 1502 1502 1503 1502 1502 1501 1501 1501 1500 1499 1498 1497 1495 1493 1491 1490 1487 1486 1486 1486 1488 1489 1492 1495
1495 1496 1489 1486 1486 1490 1494 1498 1500 1502 1501 1506 1513 1515 1514 1512 1510 1509 1507 1506 1505 1505 1504 1504 1503 1503 1501 1500 1499 1499 1498 1497 1495 1493 1491 1490 1488 1486 1486 1486 1486 1487 1489 1492
1494 1491 1485 1486 1487 1489 1491 1494 1494 1499 1504 1507 1512 1519 1518 1516 1514 1512 1510 1509 1508 1507 1506 1506 1505 1504 1503 1501 1500 1499 1498 1496 1495 1493 1491 1490 1488 1486 1485 1484 1485 1486 1487 1488
1491 1487 1486 1486 1487 1486 1493 1485 1487 1492 1505 1515 1512 1526 1523 1519 1518 1515 1514 1512 1511 1510 1509 1508 1507 1506 1505 1503 1502 1500 1499 1497 1494 1492 1490 1489 1487 1485 1484 1483 1483 1484 1484 1485
1492 1487 1487 1488 1485 1483 1486 1484 1488 1494 1503 1515 1517 1524 1526 1521 1521 1518 1516 1514 1513 1512 1511 1510 1509 1508 1507 1505 1503 1502 1500 1497 1494 1492 1490 1488 1486 1485 1483 1482 1481 1480 1480 1480
1489 1485 1485 1484 1481 1481 1483 1489 1495 1504 1511 1524 1521 1524 1526 1522 1518 1517 1516 1515 1514 1513 1513 1512 1511 1509 1508 1506 1504 1502 1499 1497 1494 1491 1489 1487 1485 1483 1481 1479 1478 1477 1477 1477
1495 1488 1484 1483 1484 1484 1488 1502 1520 1522 1530 1528 1520 1523 1524 1515 1514 1515 1515 1515 1515 1514 1513 1512 1511 1509 1508 1506 1503 1500 1498 1495 1492 1490 1487 1485 1483 1480 1478 1476 1475 1474 1473 1472
1508 1507 1490 1485 1487 1490 1493 1501 1523 1530 1533 1530 1523 1525 1521 1514 1514 1514 1515 1515 1515 1514 1513 1511 1510 1508 1505 1503 1500 1498 1495 1492 1489 1487 1484 1482 1479 1477 1475 1473 1472 1470 1469 1468
1508 1507 1491 1487 1486 1488 1495 1505 1507 1522 1526 1532 1528 1522 1517 1515 1515 1515 1515 1514 1514 1513 1511 1509 1507 1505 1502 1499 1496 1493 1490 1487 1484 1482 1479 1477 1475 1473 1471 1469 1467 1466 1464 1463
1501 1507 1498 1492 1489 1492 1496 1503 1514 1523 1532 1535 1529 1527 1530 1521 1519 1516 1515 1514 1513 1511 1509 1507 1504 1501 1498 1495 1492 1489 1485 1482 1479 1476 1474 1471 1469 1467 1465 1463 1462 1460 1459 1458
1500 1510 1507 1501 1506 1508 1504 1508 1518 1527 1528 1536 1538 1536 1526 1523 1519 1517 1516 1514 1512 1510 1507 1504 1501 1498 1495 1491 1488 1484 1481 1477 1474 1471 1468 1465 1462 1460 1458 1456 1455 1454 1453 1452
1503 1513 1518 1511 1505 1503 1505 1511 1517 1526 1531 1535 1539 1539 1524 1521 1519 1517 1515 1513 1510 1508 1504 1501 1498 1495 1491 1487 1483 1479 1475 1471 1468 1464 1460 1457 1454 1452 1449 1447 1447 1446 1445 1445
1504 1515 1528 1525 1520 1512 1512 1514 1519 1525 1534 1536 1540 1535 1522 1520 1518 1516 1514 1511 1508 1504 1501 1498 1495 1491 1486 1482 1477 1473 1469 1464 1460 1456 1452 1448 1445 1442 1440 1438 1437 1436 1436 1436
1502 1518 1526 1530 1525 1518 1518 1518 1518 1524 1535 1534 1531 1526 1521 1519 1517 1514 1511 1508 1505 1502 1498 1494 1490 1486 1481 1476 1471 1466 1461 1456 1451 1447 1442 1438 1435 1432 1429 1427 1426 1426 1425 1425
1504 1519 1519 1519 1515 1516 1518 1520 1520 1522 1524 1530 1526 1522 1518 1517 1515 1511 1508 1505 1501 1498 1494 1490 1485 1480 1475 1469 1464 1458 1453 1448 1442 1437 1432 1428 1425 1421 1419 1416 1415 1414 1414 1415
1508 1518 1519 1521 1518 1519 1522 1521 1520 1521 1521 1521 1522 1521 1514 1513 1511 1509 1505 1501 1498 1494 1490 1485 1480 1474 1468 1462 1456 1450 1444 1439 1434 1428 1423 1418 1414 1410 1407 1405 1403 1403 1403 1404
1513 1518 1526 1529 1522 1524 1528 1522 1520 1520 1519 1520 1523 1519 1512 1511 1508 1505 1501 1497 1494 1490 1485 1480 1474 1468 1462 1456 1449 1442 1436 1431 1425 1420 1414 1410 1405 1401 1397 1395 1392 1391 1392 1393
1512 1520 1529 1530 1528 1533 1525 1515 1515 1517 1516 1515 1515 1513 1511 1508 1504 1501 1498 1494 1490 1485 1480 1474 1468 1461 1455 1449 1442 1436 1429 1423 1417 1411 1406 1401 1396 1391 1387 1384 1382 1381 1381 1382
1506 1515 1527 1533 1531 1527 1520 1514 1514 1517 1517 1512 1512 1510 1508 1504 1500 1496 1494 1491 1486 1481 1476 1469 1462 1455 1448 1442 1435 1428 1422 1416 1410 1403 1397 1392 1387 1382 1378 1375 1372 1372 1372 1372
1509 1513 1524 1531 1529 1531 1520 1511 1511 1514 1516 1509 1508 1507 1505 1502 1502 1494 1490 1486 1481 1476 1470 1463 1455 1448 1442 1435 1429 1422 1415 1409 1402 1396 1390 1384 1379 1373 1369 1366 1364 1363 1362 1363
1515 1520 1526 1529 1529 1523 1511 1509 1511 1520 1515 1506 1505 1503 1502 1500 1497 1491 1486 1482 1477 1471 1464 1457 1449 1442 1436 1429 1423 1416 1409 1403 1396 1390 1383 1377 1371 1366 1361 1357 1355 1354 1354 1355
1516 1521 1525 1531 1529 1524 1506 1507 1510 1509 1503 1503 1502 1500 1498 1495 1491 1487 1482 1477 1471 1464 1457 1451 1444 1436 1430 1424 1417 1411 1404 1398 1391 1384 1377 1370 1364 1359 1354 1351 1349 1348 1347 1348
1511 1512 1514 1516 1515 1504 1502 1502 1501 1501 1500 1500 1498 1496 1494 1491 1487 1483 1478 1472 1466 1460 1453 1446 1439 1432 1425 1419 1413 1406 1399 1393 1386 1379 1372 1365 1359 1354 1350 1346 1344 1342 1342 1342
1505 1505 1507 1508 1503 1500 1499 1499 1499 1498 1498 1497 1495 1493 1490 1487 1484 1479 1474 1468 1462 1455 1448 1441 1434 1427 1421 1415 1409 1403 1396 1389 1382 1375 1368 1362 1356 1351 1346 1343 1340 1338 1337 1338
1499 1502 1504 1503 1499 1497 1496 1495 1495 1495 1495 1494 1492 1490 1487 1484 1480 1476 1470 1464 1458 1451 1444 1438 1431 1424 1417 1411 1405 1399 1393 1386 1379 1373 1367 1360 1355 1349 1345 1341 1338 1336 1336 1336
1493 1495 1498 1498 1491 1492 1491 1491 1492 1492 1492 1491 1489 1487 1484 1481 1477 1472 1466 1461 1455 1448 1441 1435 1428 1422 1415 1408 1402 1396 1390 1384 1378 1371 1365 1360 1354 1350 1345 1342 1339 1337 1336 1336